This is the latest recevied weather packets stored in our database for station/object K3SV. If no packets are shown the sender has not sent any weather packets the latest 10 day(s).
| Time | Temp. | Humidity | Pressure | Rain* | Wind** | Luminosity | Snow |
|---|---|---|---|---|---|---|---|
| 1777236486 | 30° C | 53% | 1010.6 hPa | 0 mm | - | 456 W/m² | - |
| 1777236183 | 30.56° C | 51% | 1010.7 hPa | 0 mm | - | 467 W/m² | - |
| 1777235878 | 30.56° C | 51% | 1010.6 hPa | 0 mm | - | 485 W/m² | - |
| 1777235575 | 30.56° C | 51% | 1010.7 hPa | 0 mm | - | 497 W/m² | - |
| 1777235271 | 30.56° C | 49% | 1010.6 hPa | 0 mm | - | 513 W/m² | - |
| 1777234968 | 30.56° C | 48% | 1010.6 hPa | 0 mm | - | 523 W/m² | - |
| 1777234664 | 30° C | 48% | 1010.7 hPa | 0 mm | - | 536 W/m² | - |
| 1777234359 | 30.56° C | 49% | 1010.7 hPa | 0 mm | - | 548 W/m² | - |
| 1777234056 | 30.56° C | 49% | 1010.5 hPa | 0 mm | - | 562 W/m² | - |
| 1777233752 | 30.56° C | 49% | 1010.7 hPa | 0 mm | - | 574 W/m² | - |
| 1777233448 | 30.56° C | 48% | 1010.6 hPa | 0 mm | - | 588 W/m² | - |
| 1777233147 | 31.11° C | 47% | 1010.9 hPa | 0 mm | - | 594 W/m² | - |
| 1777232843 | 30° C | 48% | 1010.7 hPa | 0 mm | - | 610 W/m² | - |
| 1777232542 | 30.56° C | 48% | 1010.7 hPa | 0 mm | - | 618 W/m² | - |
| 1777232240 | 31.11° C | 47% | 1010.7 hPa | 0 mm | - | 629 W/m² | - |
| 1777231935 | 30.56° C | 46% | 1010.6 hPa | 0 mm | - | 635 W/m² | - |
| 1777231633 | 30° C | 47% | 1011 hPa | 0 mm | - | 651 W/m² | - |
| 1777231329 | 30° C | 48% | 1010.9 hPa | 0 mm | - | 657 W/m² | - |
| 1777231024 | 31.11° C | 46% | 1011 hPa | 0 mm | - | 665 W/m² | - |
| 1777230721 | 30.56° C | 45% | 1011.1 hPa | 0 mm | - | 675 W/m² | - |
| 1777230416 | 30.56° C | 47% | 1011.2 hPa | 0 mm | - | 682 W/m² | - |
| 1777230113 | 30° C | 47% | 1011.2 hPa | 0 mm | - | 690 W/m² | - |
| 1777229810 | 30° C | 48% | 1011.2 hPa | 0 mm | - | 704 W/m² | - |
| 1777229506 | 30.56° C | 45% | 1011.2 hPa | 0 mm | - | 702 W/m² | - |
| 1777229203 | 30.56° C | 49% | 1011.1 hPa | 0 mm | - | 710 W/m² | - |
* Rain latest hour (hover to see other rain measurements)
** Current wind speed in m/s (hover to see current wind gust speed)